Location: Diebersbach
(48.5163°N, 8.0558°E)
Time: 09:39:44
(UTC+00:00)

Cosmos 1825 - Pass Details

Date: 20 June 2021
Orbit: 501 x 506 km, 82.5° (Epoch: 01 August)

Event Time Altitude Azimuth Distance (km) Brightness Sun altitude
Exits shadow 00:13:09 34° 150° (SSE) 855 2.9 -17.4°
Maximum altitude 00:14:26 51° 95° (E) 645 2.6 -17.3°
Drops below altitude 10° 00:18:07 10° 19° (NNE) 1,730 6.1 -17.2°
Sets 00:20:17 0° 14° (NNE) 2,619 7.6 -17.1°
